Weather History for Killeen, TX

Change the Weather History Date:

Thursday, February 7, 2013

  Actual Average Record
Temperature  
Mean Temperature 70 °F -  
Max Temperature 82 °F 58 °F 82 °F (2013)
Min Temperature 55 °F 40 °F 24 °F (2014)
Cooling Degree Days 4    
Growing Degree Days 20 (Base 50)    
Moisture  
Dew Point 51 °F    
Average Humidity 62    
Maximum Humidity 94    
Minimum Humidity 21    
Precipitation  
Precipitation 0.00 in - - ()
Sea Level Pressure  
Sea Level Pressure 29.93 in    
Wind  
Wind Speed 11 mph (SW)    
Max Wind Speed 18 mph    
Max Gust Speed 25 mph    
Visibility 10 miles    
Events      
Averages and records for this station are not official NWS values.
T = Trace of Precipitation, MM = Missing Value Source: NWS Daily Summary

Daily Weather History Graph

Daily Weather History Graph

Search for Another Location

Airport:

Trip Planner

Search our weather history database for the weather conditions in past years. The results will help you decide how hot, cold, wet, or windy it might be!

Date:

Astronomy

Feb. 07, 2013 Rise Set
Actual Time 7:18 AM CST 6:11 PM CST
Civil Twilight 6:53 AM CST 6:36 PM CST
Nautical Twilight 6:24 AM CST 7:05 PM CST
Astronomical Twilight 5:56 AM CST 7:33 PM CST
Moon 4:53 AM CST (2/7) 3:42 PM CST (2/7)
Length of Visible Light 11h 43m
Length of Day
10h 53m
Waning Crescent, 9% of the Moon is Illuminated
Feb 7
Waning Crescent
Feb 10
New
Feb 17
First Quarter
Feb 25
Full
Mar 4
Last Quarter

Hourly Weather History & Observations

Time (CST) Temp. Heat Index Dew Point Humidity Pressure Visibility Wind Dir Wind Speed Gust Speed Precip Events Conditions
12:15 AM 60.8 °F - 55.4 °F 82% 29.92 in 10.0 mi SE 10.4 mph - N/A   Overcast
12:35 AM 60.8 °F - 55.4 °F 82% 29.92 in 10.0 mi SE 12.7 mph - N/A   Overcast
12:55 AM 60.8 °F - 55.4 °F 82% 29.91 in 10.0 mi SSE 9.2 mph - N/A   Overcast
1:15 AM 60.8 °F - 55.4 °F 82% 29.91 in 10.0 mi SSE 9.2 mph - N/A   Overcast
1:35 AM 60.8 °F - 55.4 °F 82% 29.92 in 10.0 mi South 16.1 mph 20.7 mph N/A   Overcast
1:55 AM 60.8 °F - 55.4 °F 82% 29.91 in 10.0 mi South 11.5 mph - N/A   Overcast
2:15 AM 60.8 °F - 53.6 °F 77% 29.90 in 10.0 mi South 12.7 mph 23.0 mph N/A   Overcast
2:35 AM 59.0 °F - 53.6 °F 82% 29.90 in 10.0 mi South 17.3 mph 20.7 mph N/A   Overcast
2:55 AM 59.0 °F - 53.6 °F 82% 29.89 in 10.0 mi SSE 13.8 mph - N/A   Overcast
3:15 AM 59.0 °F - 53.6 °F 82% 29.89 in 10.0 mi SSE 9.2 mph - N/A   Overcast
3:35 AM 59.0 °F - 55.4 °F 88% 29.89 in 10.0 mi South 10.4 mph - N/A   Overcast
3:55 AM 59.0 °F - 55.4 °F 88% 29.89 in 10.0 mi South 8.1 mph - N/A   Overcast
4:15 AM 59.0 °F - 55.4 °F 88% 29.89 in 10.0 mi South 10.4 mph - N/A   Overcast
4:35 AM 59.0 °F - 55.4 °F 88% 29.89 in 10.0 mi South 10.4 mph - N/A   Overcast
4:55 AM 59.0 °F - 55.4 °F 88% 29.89 in 10.0 mi South 9.2 mph - N/A   Overcast
5:15 AM 59.0 °F - 55.4 °F 88% 29.89 in 10.0 mi South 8.1 mph - N/A   Overcast
5:35 AM 60.8 °F - 55.4 °F 82% 29.90 in 10.0 mi SW 9.2 mph - N/A   Overcast
5:55 AM 60.8 °F - 55.4 °F 82% 29.90 in 10.0 mi SSW 10.4 mph 18.4 mph N/A   Overcast
6:15 AM 59.0 °F - 55.4 °F 88% 29.91 in 9.0 mi SSW 8.1 mph - N/A   Overcast
6:35 AM 59.0 °F - 55.4 °F 88% 29.91 in 10.0 mi South 8.1 mph - N/A   Overcast
6:55 AM 59.0 °F - 55.4 °F 88% 29.91 in 8.0 mi South 6.9 mph - N/A   Overcast
7:15 AM 57.2 °F - 55.4 °F 94% 29.93 in 8.0 mi South 9.2 mph - N/A   Overcast
7:35 AM 59.0 °F - 55.4 °F 88% 29.93 in 9.0 mi South 5.8 mph - N/A   Overcast
7:55 AM 59.0 °F - 55.4 °F 88% 29.94 in 8.0 mi South 8.1 mph - N/A   Overcast
8:15 AM 59.0 °F - 55.4 °F 88% 29.94 in 10.0 mi South 9.2 mph - N/A   Overcast
8:35 AM 59.0 °F - 55.4 °F 88% 29.94 in 10.0 mi South 9.2 mph - N/A   Overcast
8:55 AM 60.8 °F - 55.4 °F 82% 29.94 in 10.0 mi South 11.5 mph - N/A   Overcast
9:15 AM 62.6 °F - 57.2 °F 82% 29.93 in 10.0 mi South 9.2 mph - N/A   Overcast
9:35 AM 64.4 °F - 57.2 °F 77% 29.94 in 10.0 mi SSW 9.2 mph - N/A   Partly Cloudy
9:55 AM 66.2 °F - 57.2 °F 73% 29.93 in 10.0 mi SSW 12.7 mph - N/A   Partly Cloudy
10:15 AM 66.2 °F - 57.2 °F 73% 29.93 in 10.0 mi SW 12.7 mph 20.7 mph N/A   Mostly Cloudy
10:35 AM 69.8 °F - 57.2 °F 64% 29.93 in 10.0 mi SSW 10.4 mph 16.1 mph N/A   Mostly Cloudy
10:55 AM 69.8 °F - 57.2 °F 64% 29.93 in 10.0 mi SSW 12.7 mph 19.6 mph N/A   Scattered Clouds
11:15 AM 71.6 °F - 57.2 °F 60% 29.93 in 10.0 mi SW 9.2 mph - N/A   Scattered Clouds
11:35 AM 73.4 °F - 59.0 °F 61% 29.93 in 10.0 mi SSW 12.7 mph 18.4 mph N/A   Partly Cloudy
11:55 AM 73.4 °F - 57.2 °F 57% 29.92 in 10.0 mi SW 10.4 mph - N/A   Clear
12:15 PM 75.2 °F - 57.2 °F 53% 29.92 in 10.0 mi SW 10.4 mph - N/A   Clear
12:35 PM 75.2 °F - 57.2 °F 53% 29.91 in 10.0 mi SW 10.4 mph - N/A   Clear
12:55 PM 78.8 °F - 57.2 °F 47% 29.90 in 10.0 mi WSW 12.7 mph 17.3 mph N/A   Clear
1:15 PM 78.8 °F - 57.2 °F 47% 29.89 in 10.0 mi West 10.4 mph - N/A   Clear
1:35 PM 80.6 °F 80.5 °F 55.4 °F 42% 29.87 in 10.0 mi SW 11.5 mph 16.1 mph N/A   Clear
1:55 PM 80.6 °F 80.5 °F 55.4 °F 42% 29.87 in 10.0 mi West 9.2 mph - N/A   Clear
2:15 PM 80.6 °F 80.5 °F 55.4 °F 42% 29.86 in 10.0 mi WSW 12.7 mph - N/A   Clear
2:35 PM 82.4 °F 81.7 °F 55.4 °F 39% 29.86 in 10.0 mi WSW 11.5 mph 17.3 mph N/A   Clear
2:55 PM 82.4 °F 81.7 °F 55.4 °F 39% 29.85 in 10.0 mi WSW 11.5 mph 16.1 mph N/A   Clear
3:15 PM 82.4 °F - 46.4 °F 28% 29.85 in 10.0 mi WSW 11.5 mph 20.7 mph N/A   Partly Cloudy
3:35 PM 82.4 °F - 42.8 °F 25% 29.85 in 10.0 mi WNW 17.3 mph 23.0 mph N/A   Partly Cloudy
3:55 PM 82.4 °F - 42.8 °F 25% 29.85 in 10.0 mi WNW 16.1 mph 23.0 mph N/A   Clear
4:15 PM 82.4 °F - 41.0 °F 23% 29.85 in 10.0 mi West 13.8 mph 24.2 mph N/A   Clear
4:35 PM 82.4 °F - 39.2 °F 21% 29.86 in 10.0 mi West 11.5 mph 20.7 mph N/A   Clear
4:55 PM 80.6 °F - 39.2 °F 23% 29.87 in 10.0 mi NW 12.7 mph 20.7 mph N/A   Clear
5:35 PM 78.8 °F - 37.4 °F 23% 29.89 in 10.0 mi NW 16.1 mph 23.0 mph N/A   Clear
5:55 PM 75.2 °F - 35.6 °F 24% 29.90 in 10.0 mi NW 12.7 mph - N/A   Clear
6:15 PM 73.4 °F - 37.4 °F 27% 29.92 in 10.0 mi NNW 16.1 mph 24.2 mph N/A   Clear
6:35 PM 71.6 °F - 39.2 °F 31% 29.93 in 10.0 mi NNW 10.4 mph 20.7 mph N/A   Clear
6:55 PM 69.8 °F - 41.0 °F 35% 29.95 in 10.0 mi NNW 9.2 mph 17.3 mph N/A   Clear
7:15 PM 68.0 °F - 42.8 °F 40% 29.96 in 10.0 mi NW 12.7 mph 19.6 mph N/A   Clear
7:35 PM 68.0 °F - 42.8 °F 40% 29.98 in 10.0 mi NNW 10.4 mph 18.4 mph N/A   Clear
7:55 PM 66.2 °F - 44.6 °F 46% 29.99 in 10.0 mi NW 13.8 mph 19.6 mph N/A   Clear
8:35 PM 64.4 °F - 46.4 °F 52% 30.01 in 10.0 mi NW 13.8 mph 24.2 mph N/A   Unknown
8:55 PM 62.6 °F - 46.4 °F 55% 30.01 in 10.0 mi NW 13.8 mph 19.6 mph N/A   Clear
9:15 PM 62.6 °F - 46.4 °F 55% 30.02 in 10.0 mi NW 13.8 mph 21.9 mph N/A   Clear
9:35 PM 62.6 °F - 46.4 °F 55% 30.04 in 10.0 mi NW 18.4 mph 25.3 mph N/A   Clear
9:55 PM 60.8 °F - 44.6 °F 55% 30.04 in 10.0 mi NW 17.3 mph 23.0 mph N/A   Clear
10:15 PM 60.8 °F - 44.6 °F 55% 30.06 in 10.0 mi NNW 18.4 mph 24.2 mph N/A   Clear
10:35 PM 57.2 °F - 44.6 °F 63% 30.08 in 10.0 mi NNW 15.0 mph 24.2 mph N/A   Clear
10:55 PM 57.2 °F - 44.6 °F 63% 30.09 in 10.0 mi NNW 15.0 mph 20.7 mph N/A   Clear
11:15 PM 57.2 °F - 44.6 °F 63% 30.09 in 10.0 mi NNW 13.8 mph 21.9 mph N/A   Clear
11:35 PM 57.2 °F - 42.8 °F 59% 30.10 in 10.0 mi NW 13.8 mph 20.7 mph N/A   Clear
11:55 PM 55.4 °F - 42.8 °F 63% 30.11 in 10.0 mi NW 16.1 mph 21.9 mph N/A   Clear